NORTHEAST SUFFOLK  -  Coastal Flood Statement Coastal Flood Statement        NORTHERN NASSAU  -  Coastal Flood Statement Coastal Flood Statement     Coastal Flood Statement Coastal Flood Statement        NORTHERN QUEENS  -  Coastal Flood Statement Coastal Flood Statement        NORTHWEST SUFFOLK  -  Coastal Flood Statement Coastal Flood Statement        SOUTHEAST SUFFOLK  -  Coastal Flood Statement Coastal Flood Statement        SOUTHERN NASSAU  -  Coastal Flood Statement Coastal Flood Statement     Coastal Flood Statement Coastal Flood Statement        SOUTHERN QUEENS  -  Coastal Flood Statement Coastal Flood Statement        SOUTHWEST SUFFOLK  -  Coastal Flood Statement Coastal Flood Statement      

Active alerts

Northern Queens
  Details for Northern Queens Coastal Flood Statement
Southern Queens
  Details for Southern Queens Coastal Flood Statement
Northern Nassau
  Details for Northern Nassau Coastal Flood Statement  +1 additional alert
Southern Nassau
  Details for Southern Nassau Coastal Flood Statement  +1 additional alert
Northwest Suffolk
  Details for Northwest Suffolk Coastal Flood Statement
Southwest Suffolk
  Details for Southwest Suffolk Coastal Flood Statement
Northeast Suffolk
  Details for Northeast Suffolk Coastal Flood Statement
Southeast Suffolk
  Details for Southeast Suffolk Coastal Flood Statement


WXM80 ListenWXM80 Stop

You find our weather info also at:

UK Metoffice

WeatherCloud

Weather Underground

Northeastern Weather Network

AWEKAS

Citizen Weather Observer Program (CWOP)

HAMweather, WeatherForYou, PWS Weather


Weather Underground History page Text

Daily Summary for September 21, 2017 Units:  English    Metric   Both
« Previous Day
Next Day »
Daily Weekly Monthly Yearly Custom
  High: Low: Average:
Temperature: 76.2 °F 70.1 °F 73 °F
Dew Point: 68.7 °F 57.4 °F 66.2 °F
Humidity: 89 % 64 % 80 %
Wind Speed: 8.5 mph 0.0 mph 4 mph
Wind Gust: 14.0 mph - -
Wind:- - East
Pressure: 29.95 in 29.85 in -
Precipitation: 0.00 in    
Historical Graphs
 
 
Tabular Data for September 21, 2017
Time Temperature Dew Point Pressure Wind Wind Speed Wind Gust Humidity Rainfall Rate (Hourly)
00:00 72.9 °F 67.1 °F 29.85 in NNW 1.8 mph 4.6 mph 82 % 0.00 in
00:05 72.9 °F 67.4 °F 29.85 in North 2.6 mph 3.5 mph 83 % 0.00 in
00:10 72.9 °F 67.4 °F 29.85 in North 2.0 mph 6.0 mph 83 % 0.00 in
00:15 72.8 °F 67.7 °F 29.85 in NNW 0.3 mph 5.8 mph 84 % 0.00 in
00:20 72.8 °F 67.7 °F 29.85 in NW 0.9 mph 2.3 mph 84 % 0.00 in
00:25 72.7 °F 67.6 °F 29.85 in NNW 3.3 mph 4.6 mph 84 % 0.00 in
00:30 72.7 °F 67.6 °F 29.85 in NNE 0.9 mph 6.0 mph 84 % 0.00 in
00:35 72.6 °F 67.5 °F 29.85 in North 0.9 mph 6.9 mph 84 % 0.00 in
00:41 72.5 °F 67.4 °F 29.85 in Calm   4.0 mph 84 % 0.00 in
00:46 72.5 °F 67.4 °F 29.85 in NNW 2.0 mph 6.0 mph 84 % 0.00 in
00:51 72.5 °F 67.7 °F 29.85 in NW 2.0 mph 6.0 mph 85 % 0.00 in
00:56 72.4 °F 67.6 °F 29.85 in WNW 1.0 mph 8.0 mph 85 % 0.00 in
01:01 72.4 °F 67.6 °F 29.85 in NW 2.8 mph 6.9 mph 85 % 0.00 in
01:06 72.3 °F 67.5 °F 29.85 in North 1.4 mph 3.5 mph 85 % 0.00 in
01:11 72.2 °F 67.4 °F 29.86 in NNE 2.7 mph 7.0 mph 85 % 0.00 in
01:16 72.2 °F 67.4 °F 29.86 in NNW 3.9 mph 5.8 mph 85 % 0.00 in
01:21 72.1 °F 67.7 °F 29.85 in North 4.0 mph 8.1 mph 86 % 0.00 in
01:26 72.0 °F 67.2 °F 29.86 in NW 4.6 mph 8.1 mph 85 % 0.00 in
01:31 72.0 °F 66.9 °F 29.85 in NNE 4.7 mph 10.4 mph 84 % 0.00 in
01:36 72.1 °F 67.0 °F 29.85 in North 5.6 mph 8.1 mph 84 % 0.00 in
01:41 72.2 °F 67.1 °F 29.85 in North 3.8 mph 6.0 mph 84 % 0.00 in
01:42 72.2 °F 67.1 °F 29.85 in NNE 4.1 mph 6.9 mph 84 % 0.00 in
01:48 72.3 °F 67.2 °F 29.85 in North 2.9 mph 6.9 mph 84 % 0.00 in
01:51 72.3 °F 67.2 °F 29.85 in North 3.0 mph 9.0 mph 84 % 0.00 in
01:55 72.4 °F 67.3 °F 29.85 in NE 4.3 mph 7.0 mph 84 % 0.00 in
02:00 72.3 °F 67.2 °F 29.85 in NNE 4.9 mph 6.9 mph 84 % 0.00 in
02:06 72.3 °F 67.2 °F 29.85 in NNE 4.4 mph 6.9 mph 84 % 0.00 in
02:11 72.4 °F 67.3 °F 29.85 in North 2.1 mph 4.6 mph 84 % 0.00 in
02:16 72.3 °F 67.2 °F 29.85 in North 2.5 mph 8.1 mph 84 % 0.00 in
02:21 72.3 °F 67.2 °F 29.85 in North 2.8 mph 6.9 mph 84 % 0.00 in
02:26 72.3 °F 67.2 °F 29.85 in North 2.1 mph 5.8 mph 84 % 0.00 in
02:31 72.3 °F 67.2 °F 29.85 in NE 2.4 mph 4.6 mph 84 % 0.00 in
02:36 72.3 °F 67.2 °F 29.85 in NNE 2.0 mph 3.5 mph 84 % 0.00 in
02:41 72.3 °F 67.2 °F 29.85 in NE 2.0 mph 3.5 mph 84 % 0.00 in
02:43 72.3 °F 67.2 °F 29.86 in NNE 2.9 mph 4.6 mph 84 % 0.00 in
02:48 72.2 °F 67.1 °F 29.85 in NNW 3.5 mph 7.0 mph 84 % 0.00 in
02:53 72.2 °F 67.1 °F 29.85 in NNE 2.8 mph 3.5 mph 84 % 0.00 in
02:58 72.2 °F 67.1 °F 29.85 in NNE 5.6 mph 10.4 mph 84 % 0.00 in
03:03 72.2 °F 67.1 °F 29.85 in North 3.5 mph 5.0 mph 84 % 0.00 in
03:08 72.2 °F 67.1 °F 29.85 in NNE 5.3 mph 7.0 mph 84 % 0.00 in
03:13 72.2 °F 67.1 °F 29.86 in NNE 2.5 mph 6.9 mph 84 % 0.00 in
03:17 72.2 °F 67.1 °F 29.86 in North 0.4 mph 4.0 mph 84 % 0.00 in
03:22 72.2 °F 67.4 °F 29.86 in North 2.9 mph 5.0 mph 85 % 0.00 in
03:28 72.2 °F 67.4 °F 29.86 in NNW 1.8 mph 3.5 mph 85 % 0.00 in
03:33 72.2 °F 67.4 °F 29.86 in NNW 2.0 mph 6.9 mph 85 % 0.00 in
03:38 72.1 °F 67.3 °F 29.86 in North 3.8 mph 6.9 mph 85 % 0.00 in
03:43 72.0 °F 67.2 °F 29.86 in NNW 1.5 mph 3.5 mph 85 % 0.00 in
03:48 71.9 °F 67.1 °F 29.87 in NE 0.6 mph 5.0 mph 85 % 0.00 in
03:53 71.8 °F 67.4 °F 29.86 in North 0.7 mph 4.0 mph 86 % 0.00 in
03:58 71.7 °F 67.3 °F 29.86 in North 1.8 mph 3.5 mph 86 % 0.00 in
04:03 71.7 °F 67.3 °F 29.86 in North 1.8 mph 7.0 mph 86 % 0.00 in
04:08 71.6 °F 67.2 °F 29.86 in NNW 0.8 mph 4.0 mph 86 % 0.00 in
04:13 71.5 °F 67.1 °F 29.86 in NNE 3.1 mph 4.6 mph 86 % 0.00 in
04:18 71.4 °F 67.3 °F 29.86 in WNW 1.8 mph 7.0 mph 87 % 0.00 in
04:23 71.3 °F 67.2 °F 29.86 in West 2.9 mph 4.6 mph 87 % 0.00 in
04:28 71.2 °F 67.1 °F 29.86 in NNW 2.7 mph 6.9 mph 87 % 0.00 in
04:33 71.1 °F 67.0 °F 29.87 in NNW 3.1 mph 5.8 mph 87 % 0.00 in
04:38 71.0 °F 66.9 °F 29.87 in North 2.7 mph 5.8 mph 87 % 0.00 in
04:43 71.0 °F 67.3 °F 29.87 in NNE 1.5 mph 7.0 mph 88 % 0.00 in
04:48 70.9 °F 66.8 °F 29.86 in North 3.1 mph 5.0 mph 87 % 0.00 in
04:53 70.9 °F 67.2 °F 29.87 in NE 2.7 mph 7.0 mph 88 % 0.00 in
04:58 70.8 °F 67.1 °F 29.87 in NNE 3.1 mph 3.5 mph 88 % 0.00 in
05:03 70.7 °F 67.0 °F 29.87 in NW 0.7 mph 3.5 mph 88 % 0.00 in
05:13 70.7 °F 67.0 °F 29.87 in NNW 1.6 mph 3.5 mph 88 % 0.00 in
05:18 70.6 °F 66.9 °F 29.87 in NW 2.2 mph 3.5 mph 88 % 0.00 in
05:24 70.6 °F 67.2 °F 29.87 in NW 0.6 mph 4.6 mph 89 % 0.00 in
05:28 70.5 °F 66.8 °F 29.88 in NW 2.1 mph 3.5 mph 88 % 0.00 in
05:34 70.4 °F 66.7 °F 29.87 in North 1.7 mph 6.9 mph 88 % 0.00 in
05:39 70.4 °F 66.7 °F 29.87 in NNE 2.3 mph 4.0 mph 88 % 0.00 in
05:44 70.4 °F 66.7 °F 29.88 in West 0.8 mph 3.5 mph 88 % 0.00 in
05:49 70.4 °F 66.7 °F 29.88 in North 0.6 mph 4.6 mph 88 % 0.00 in
05:54 70.4 °F 66.7 °F 29.88 in NW 0.9 mph 6.9 mph 88 % 0.00 in
05:59 70.4 °F 66.7 °F 29.88 in Calm   5.8 mph 88 % 0.00 in
06:04 70.4 °F 66.7 °F 29.88 in North 1.3 mph 4.0 mph 88 % 0.00 in
06:09 70.4 °F 66.7 °F 29.89 in North 0.9 mph 4.6 mph 88 % 0.00 in
06:10 70.4 °F 66.7 °F 29.89 in NNW 3.0 mph 5.8 mph 88 % 0.00 in
06:15 70.4 °F 66.7 °F 29.89 in NNE 2.5 mph 3.5 mph 88 % 0.00 in
06:20 70.4 °F 66.7 °F 29.89 in NNE 4.2 mph 5.8 mph 88 % 0.00 in
06:25 70.4 °F 66.7 °F 29.89 in NNE 4.6 mph 9.2 mph 88 % 0.00 in
06:30 70.5 °F 66.4 °F 29.89 in NNE 3.5 mph 5.0 mph 87 % 0.00 in
06:35 70.5 °F 66.4 °F 29.89 in North 4.7 mph 7.0 mph 87 % 0.00 in
06:40 70.6 °F 66.5 °F 29.89 in NNE 4.6 mph 8.1 mph 87 % 0.00 in
06:45 70.6 °F 66.5 °F 29.90 in NNE 5.2 mph 10.4 mph 87 % 0.00 in
06:50 70.7 °F 66.6 °F 29.90 in NNE 4.8 mph 7.0 mph 87 % 0.00 in
06:55 70.8 °F 66.7 °F 29.90 in NNE 5.4 mph 10.4 mph 87 % 0.00 in
07:00 70.8 °F 66.4 °F 29.90 in NNE 6.8 mph 11.5 mph 86 % 0.00 in
07:06 70.9 °F 66.5 °F 29.91 in North 5.0 mph 12.0 mph 86 % 0.00 in
07:11 71.0 °F 66.6 °F 29.90 in North 5.6 mph 8.1 mph 86 % 0.00 in
07:16 71.1 °F 66.7 °F 29.91 in North 5.0 mph 9.0 mph 86 % 0.00 in
07:21 71.1 °F 66.7 °F 29.91 in NNE 6.0 mph 10.0 mph 86 % 0.00 in
07:26 71.1 °F 66.7 °F 29.91 in North 5.0 mph 9.0 mph 86 % 0.00 in
07:30 71.2 °F 66.8 °F 29.91 in NNW 4.4 mph 11.5 mph 86 % 0.00 in
07:36 71.2 °F 66.8 °F 29.91 in NNE 6.0 mph 8.0 mph 86 % 0.00 in
07:41 71.3 °F 66.9 °F 29.91 in NNE 5.0 mph 9.0 mph 86 % 0.00 in
07:46 71.3 °F 66.9 °F 29.91 in North 5.0 mph 9.0 mph 86 % 0.00 in
07:51 71.3 °F 66.9 °F 29.91 in NNE 6.0 mph 9.0 mph 86 % 0.00 in
07:56 71.4 °F 67.0 °F 29.91 in NNE 5.0 mph 10.0 mph 86 % 0.00 in
08:01 71.5 °F 66.8 °F 29.91 in NNE 6.1 mph 8.0 mph 85 % 0.00 in
08:06 71.6 °F 66.8 °F 29.91 in NNW 5.2 mph 11.5 mph 85 % 0.00 in
08:11 71.7 °F 66.9 °F 29.92 in NNW 5.6 mph 7.0 mph 85 % 0.00 in
08:16 71.7 °F 66.9 °F 29.91 in North 2.0 mph 8.0 mph 85 % 0.00 in
08:21 71.7 °F 66.9 °F 29.92 in NNE 5.0 mph 12.0 mph 85 % 0.00 in
08:26 71.7 °F 67.0 °F 29.92 in NNE 5.0 mph 9.0 mph 85 % 0.00 in
08:31 71.8 °F 66.7 °F 29.92 in North 7.0 mph 9.0 mph 84 % 0.00 in
08:36 71.8 °F 66.7 °F 29.92 in North 6.0 mph 7.0 mph 84 % 0.00 in
08:41 71.9 °F 66.8 °F 29.92 in North 6.0 mph 9.0 mph 84 % 0.00 in
08:46 72.0 °F 66.9 °F 29.92 in North 3.0 mph 10.0 mph 84 % 0.00 in
08:51 72.1 °F 67.0 °F 29.92 in NNE 7.0 mph 12.0 mph 84 % 0.00 in
08:56 72.1 °F 67.0 °F 29.92 in NNE 5.0 mph 8.0 mph 84 % 0.00 in
09:01 72.2 °F 66.7 °F 29.92 in NE 4.8 mph 9.2 mph 83 % 0.00 in
09:06 72.4 °F 66.9 °F 29.92 in NNE 6.0 mph 8.1 mph 83 % 0.00 in
09:11 72.5 °F 67.0 °F 29.93 in NNE 3.9 mph 5.8 mph 83 % 0.00 in
09:16 72.6 °F 67.1 °F 29.93 in NNE 6.1 mph 9.2 mph 83 % 0.00 in
09:21 72.6 °F 66.8 °F 29.93 in NE 5.4 mph 11.5 mph 82 % 0.00 in
09:26 72.6 °F 66.8 °F 29.93 in North 4.7 mph 8.1 mph 82 % 0.00 in
09:31 72.6 °F 66.8 °F 29.93 in North 6.7 mph 11.5 mph 82 % 0.00 in
09:36 72.7 °F 66.9 °F 29.93 in NNE 6.4 mph 8.1 mph 82 % 0.00 in
09:41 72.8 °F 67.0 °F 29.93 in NE 6.8 mph 11.5 mph 82 % 0.00 in
09:46 72.9 °F 67.1 °F 29.93 in NE 3.7 mph 9.2 mph 82 % 0.00 in
09:51 73.0 °F 67.2 °F 29.93 in North 7.9 mph 11.5 mph 82 % 0.00 in
09:56 73.1 °F 67.3 °F 29.93 in NNE 5.3 mph 8.1 mph 82 % 0.00 in
10:01 73.2 °F 67.4 °F 29.94 in North 7.3 mph 10.4 mph 82 % 0.00 in
10:06 73.4 °F 67.6 °F 29.93 in NNE 3.2 mph 5.8 mph 82 % 0.00 in
10:17 73.7 °F 67.5 °F 29.94 in NE 4.9 mph 11.5 mph 81 % 0.00 in
10:22 73.9 °F 67.7 °F 29.94 in NE 5.6 mph 8.1 mph 81 % 0.00 in
10:27 74.0 °F 67.8 °F 29.94 in NNE 3.8 mph 6.9 mph 81 % 0.00 in
10:32 74.2 °F 68.0 °F 29.94 in NNE 3.4 mph 5.8 mph 81 % 0.00 in
10:37 74.4 °F 68.2 °F 29.95 in NNE 5.2 mph 9.2 mph 81 % 0.00 in
10:42 74.6 °F 68.0 °F 29.94 in NNE 4.3 mph 9.2 mph 80 % 0.00 in
10:47 74.7 °F 67.8 °F 29.94 in NE 6.8 mph 11.5 mph 79 % 0.00 in
10:52 74.9 °F 67.6 °F 29.94 in NE 2.3 mph 5.8 mph 78 % 0.00 in
10:57 75.0 °F 68.0 °F 29.94 in NNE 4.6 mph 7.0 mph 79 % 0.00 in
11:02 75.2 °F 68.2 °F 29.94 in NNE 3.6 mph 6.9 mph 79 % 0.00 in
11:07 75.4 °F 68.4 °F 29.94 in NNE 4.5 mph 8.1 mph 79 % 0.00 in
11:12 75.6 °F 68.3 °F 29.94 in North 4.6 mph 8.1 mph 78 % 0.00 in
11:17 75.7 °F 68.4 °F 29.94 in NNE 3.1 mph 8.0 mph 78 % 0.00 in
11:22 75.8 °F 68.1 °F 29.94 in North 6.2 mph 8.1 mph 77 % 0.00 in
11:27 75.9 °F 68.2 °F 29.94 in North 5.6 mph 8.0 mph 77 % 0.00 in
11:33 76.0 °F 67.9 °F 29.94 in NE 2.9 mph 8.1 mph 76 % 0.00 in
11:38 76.0 °F 67.9 °F 29.94 in NNE 5.2 mph 9.2 mph 76 % 0.00 in
11:43 76.0 °F 68.6 °F 29.94 in ENE 3.3 mph 5.8 mph 78 % 0.00 in
11:48 76.1 °F 68.7 °F 29.94 in ENE 2.9 mph 5.8 mph 78 % 0.00 in
11:53 76.1 °F 68.7 °F 29.94 in NNE 2.3 mph 5.0 mph 78 % 0.00 in
11:58 76.1 °F 68.7 °F 29.93 in NE 2.9 mph 5.8 mph 78 % 0.00 in
12:03 76.2 °F 68.5 °F 29.94 in North 3.6 mph 5.8 mph 77 % 0.00 in
12:08 76.1 °F 68.4 °F 29.93 in NNE 5.8 mph 9.2 mph 77 % 0.00 in
12:13 76.0 °F 67.9 °F 29.94 in NNE 8.5 mph 11.5 mph 76 % 0.00 in
12:18 75.9 °F 67.8 °F 29.93 in NNE 6.2 mph 8.1 mph 76 % 0.00 in
12:23 75.8 °F 68.1 °F 29.93 in NNE 3.7 mph 5.8 mph 77 % 0.00 in
12:28 75.8 °F 68.4 °F 29.93 in North 2.6 mph 4.0 mph 78 % 0.00 in
12:33 75.7 °F 68.4 °F 29.93 in NNE 4.4 mph 6.9 mph 78 % 0.00 in
12:38 75.7 °F 68.4 °F 29.93 in ENE 4.3 mph 6.9 mph 78 % 0.00 in
12:43 75.6 °F 68.3 °F 29.93 in NE 5.4 mph 9.0 mph 78 % 0.00 in
12:44 75.5 °F 67.8 °F 29.93 in NNE 5.9 mph 10.4 mph 77 % 0.00 in
12:49 75.5 °F 67.8 °F 29.93 in NNE 5.8 mph 10.4 mph 77 % 0.00 in
12:54 75.4 °F 67.7 °F 29.93 in North 5.9 mph 6.9 mph 77 % 0.00 in
12:59 75.4 °F 67.3 °F 29.93 in NNE 4.7 mph 9.2 mph 76 % 0.00 in
13:04 75.3 °F 67.2 °F 29.93 in NNE 5.5 mph 6.9 mph 76 % 0.00 in
13:09 75.4 °F 67.7 °F 29.93 in NNE 3.6 mph 5.8 mph 77 % 0.00 in
13:15 75.5 °F 68.2 °F 29.92 in North 3.9 mph 7.0 mph 78 % 0.00 in
13:20 75.6 °F 68.3 °F 29.92 in NNE 3.5 mph 6.0 mph 78 % 0.00 in
13:25 75.5 °F 67.8 °F 29.92 in NE 3.1 mph 6.9 mph 77 % 0.00 in
13:30 75.5 °F 67.4 °F 29.92 in NNE 7.3 mph 11.5 mph 76 % 0.00 in
13:35 75.5 °F 67.8 °F 29.92 in NNE 5.9 mph 6.9 mph 77 % 0.00 in
13:40 75.6 °F 67.9 °F 29.92 in NNE 3.3 mph 11.5 mph 77 % 0.00 in
13:45 75.6 °F 67.9 °F 29.92 in NNE 2.5 mph 4.0 mph 77 % 0.00 in
13:50 75.6 °F 67.9 °F 29.92 in NE 5.6 mph 9.2 mph 77 % 0.00 in
13:55 75.6 °F 67.5 °F 29.92 in NE 7.2 mph 11.5 mph 76 % 0.00 in
14:00 75.6 °F 67.5 °F 29.92 in NNE 3.5 mph 6.9 mph 76 % 0.00 in
14:05 75.6 °F 67.9 °F 29.92 in NE 7.0 mph 9.0 mph 77 % 0.00 in
14:10 75.6 °F 67.5 °F 29.92 in NNE 6.2 mph 9.2 mph 76 % 0.00 in
14:15 75.7 °F 68.0 °F 29.91 in NNE 2.3 mph 6.0 mph 77 % 0.00 in
14:20 75.6 °F 67.9 °F 29.92 in North 4.5 mph 8.1 mph 77 % 0.00 in
14:25 75.7 °F 68.0 °F 29.92 in NNE 3.8 mph 5.8 mph 77 % 0.00 in
14:30 75.8 °F 68.1 °F 29.91 in NNE 3.5 mph 6.9 mph 77 % 0.00 in
14:35 75.9 °F 68.2 °F 29.92 in NNE 3.3 mph 6.9 mph 77 % 0.00 in
14:41 76.0 °F 68.3 °F 29.92 in NNE 2.0 mph 5.0 mph 77 % 0.00 in
14:46 76.1 °F 68.7 °F 29.92 in NNE 3.0 mph 7.0 mph 78 % 0.00 in
14:51 76.1 °F 68.4 °F 29.92 in North 3.0 mph 8.0 mph 77 % 0.00 in
14:56 76.2 °F 68.5 °F 29.92 in NNE 4.7 mph 6.9 mph 77 % 0.00 in
15:01 76.2 °F 68.5 °F 29.91 in NNE 4.8 mph 6.9 mph 77 % 0.00 in
15:06 76.1 °F 67.6 °F 29.91 in North 6.0 mph 14.0 mph 75 % 0.00 in
15:11 76.1 °F 67.9 °F 29.91 in NNE 6.0 mph 12.0 mph 76 % 0.00 in
15:16 76.0 °F 67.5 °F 29.91 in NNE 6.0 mph 12.0 mph 75 % 0.00 in
15:21 75.9 °F 67.4 °F 29.91 in NNE 6.0 mph 12.0 mph 75 % 0.00 in
15:26 76.0 °F 67.5 °F 29.91 in NNE 5.0 mph 10.0 mph 75 % 0.00 in
15:31 76.0 °F 67.5 °F 29.92 in NNE 6.0 mph 12.0 mph 75 % 0.00 in
15:36 76.0 °F 67.5 °F 29.91 in NNE 6.0 mph 9.0 mph 75 % 0.00 in
15:41 76.0 °F 67.9 °F 29.91 in NNE 5.0 mph 9.0 mph 76 % 0.00 in
15:46 76.0 °F 68.3 °F 29.91 in NNE 3.0 mph 8.0 mph 77 % 0.00 in
15:51 75.9 °F 67.8 °F 29.91 in NNE 3.0 mph 8.0 mph 76 % 0.00 in
15:56 75.9 °F 68.2 °F 29.91 in North 2.8 mph 6.9 mph 77 % 0.00 in
16:01 75.9 °F 68.2 °F 29.91 in North 3.0 mph 4.6 mph 77 % 0.00 in
16:02 75.9 °F 68.2 °F 29.91 in North 1.9 mph 5.8 mph 77 % 0.00 in
16:07 75.8 °F 68.1 °F 29.91 in NNE 4.9 mph 9.2 mph 77 % 0.00 in
16:12 75.7 °F 68.0 °F 29.91 in North 6.3 mph 9.0 mph 77 % 0.00 in
16:17 75.7 °F 68.0 °F 29.92 in NNE 5.4 mph 9.0 mph 77 % 0.00 in
16:22 75.6 °F 67.5 °F 29.92 in NE 6.7 mph 10.4 mph 76 % 0.00 in
16:27 75.5 °F 67.4 °F 29.91 in NNE 4.4 mph 5.0 mph 76 % 0.00 in
16:32 75.5 °F 67.4 °F 29.92 in NNE 4.9 mph 7.0 mph 76 % 0.00 in
16:38 75.4 °F 67.7 °F 29.92 in NE 3.9 mph 10.4 mph 77 % 0.00 in
16:43 75.4 °F 67.7 °F 29.92 in North 3.9 mph 9.2 mph 77 % 0.00 in
16:48 75.3 °F 67.6 °F 29.92 in NE 1.4 mph 6.9 mph 77 % 0.00 in
16:53 75.2 °F 67.5 °F 29.92 in North 4.6 mph 5.8 mph 77 % 0.00 in
16:58 75.2 °F 67.5 °F 29.92 in NNE 3.7 mph 5.8 mph 77 % 0.00 in
17:03 75.1 °F 66.2 °F 29.92 in NNE 5.7 mph 10.4 mph 74 % 0.00 in
17:08 75.0 °F 66.1 °F 29.92 in NE 5.3 mph 10.4 mph 74 % 0.00 in
17:13 75.0 °F 66.5 °F 29.92 in North 5.5 mph 8.1 mph 75 % 0.00 in
17:18 74.9 °F 66.8 °F 29.92 in North 5.9 mph 11.5 mph 76 % 0.00 in
17:23 74.9 °F 66.8 °F 29.93 in North 6.7 mph 9.2 mph 76 % 0.00 in
17:28 74.9 °F 66.4 °F 29.92 in NNE 6.9 mph 9.2 mph 75 % 0.00 in
17:33 74.8 °F 66.7 °F 29.92 in NE 4.8 mph 9.2 mph 76 % 0.00 in
17:38 74.8 °F 66.7 °F 29.93 in NNE 4.2 mph 8.1 mph 76 % 0.00 in
17:43 74.7 °F 67.0 °F 29.93 in NNW 4.2 mph 6.0 mph 77 % 0.00 in
17:48 74.7 °F 66.6 °F 29.92 in NNW 4.6 mph 5.8 mph 76 % 0.00 in
17:53 74.6 °F 66.5 °F 29.92 in NNE 3.6 mph 6.0 mph 76 % 0.00 in
17:58 74.5 °F 66.4 °F 29.93 in NNE 2.7 mph 4.6 mph 76 % 0.00 in
18:03 74.5 °F 66.8 °F 29.93 in NNE 3.5 mph 6.9 mph 77 % 0.00 in
18:08 74.4 °F 66.7 °F 29.93 in NNE 2.9 mph 7.0 mph 77 % 0.00 in
18:13 74.4 °F 67.1 °F 29.93 in NNE 4.5 mph 8.0 mph 78 % 0.00 in
18:18 74.3 °F 66.6 °F 29.93 in NNE 4.1 mph 7.0 mph 77 % 0.00 in
18:23 74.1 °F 66.4 °F 29.93 in NE 3.8 mph 7.0 mph 77 % 0.00 in
18:28 74.0 °F 66.3 °F 29.93 in NNE 4.1 mph 7.0 mph 77 % 0.00 in
18:33 73.9 °F 66.2 °F 29.93 in North 5.0 mph 7.0 mph 77 % 0.00 in
18:38 73.8 °F 66.5 °F 29.94 in NNE 3.6 mph 5.8 mph 78 % 0.00 in
18:43 73.8 °F 66.5 °F 29.93 in NNE 4.8 mph 6.9 mph 78 % 0.00 in
18:48 73.7 °F 66.4 °F 29.93 in NNE 3.8 mph 5.8 mph 78 % 0.00 in
18:53 73.6 °F 66.7 °F 29.93 in NNE 3.4 mph 5.0 mph 79 % 0.00 in
18:58 73.6 °F 66.7 °F 29.93 in NNE 2.4 mph 3.5 mph 79 % 0.00 in
19:03 73.5 °F 66.6 °F 29.93 in NNE 2.6 mph 4.0 mph 79 % 0.00 in
19:09 73.4 °F 66.9 °F 29.93 in North 2.9 mph 4.6 mph 80 % 0.00 in
19:14 73.3 °F 66.8 °F 29.93 in NNE 4.7 mph 5.0 mph 80 % 0.00 in
19:19 73.2 °F 67.0 °F 29.93 in NNE 4.1 mph 7.0 mph 81 % 0.00 in
19:24 73.1 °F 66.9 °F 29.93 in NNE 3.4 mph 5.8 mph 81 % 0.00 in
19:29 73.0 °F 66.5 °F 29.93 in NNE 3.9 mph 5.8 mph 80 % 0.00 in
19:34 72.9 °F 66.4 °F 29.94 in NE 4.0 mph 6.0 mph 80 % 0.00 in
19:39 72.9 °F 66.4 °F 29.94 in NNE 3.2 mph 6.9 mph 80 % 0.00 in
19:44 72.8 °F 66.6 °F 29.94 in ENE 2.4 mph 4.6 mph 81 % 0.00 in
19:49 72.7 °F 66.2 °F 29.94 in East 4.6 mph 9.2 mph 80 % 0.00 in
19:54 72.5 °F 63.7 °F 29.94 in ENE 2.9 mph 6.9 mph 74 % 0.00 in
19:59 72.4 °F 63.3 °F 29.94 in North 3.6 mph 9.2 mph 73 % 0.00 in
20:05 72.4 °F 63.6 °F 29.94 in NE 6.3 mph 10.4 mph 74 % 0.00 in
20:10 72.4 °F 62.9 °F 29.94 in NNE 5.3 mph 9.2 mph 72 % 0.00 in
20:15 72.3 °F 62.8 °F 29.94 in NE 3.2 mph 5.8 mph 72 % 0.00 in
20:20 72.3 °F 62.4 °F 29.94 in NNE 4.9 mph 8.1 mph 71 % 0.00 in
20:25 72.4 °F 62.5 °F 29.95 in NE 3.9 mph 6.0 mph 71 % 0.00 in
20:27 72.3 °F 62.4 °F 29.95 in NNE 3.5 mph 6.9 mph 71 % 0.00 in
20:32 72.4 °F 62.9 °F 29.95 in NNE 5.2 mph 9.2 mph 72 % 0.00 in
20:37 72.4 °F 62.5 °F 29.95 in NNE 4.6 mph 6.9 mph 71 % 0.00 in
20:42 72.3 °F 62.4 °F 29.95 in NNE 4.9 mph 8.0 mph 71 % 0.00 in
20:47 72.3 °F 62.8 °F 29.95 in NE 3.5 mph 9.2 mph 72 % 0.00 in
20:52 72.2 °F 62.3 °F 29.95 in NNE 4.8 mph 11.5 mph 71 % 0.00 in
20:57 72.2 °F 62.3 °F 29.95 in NNE 4.7 mph 9.2 mph 71 % 0.00 in
21:02 72.2 °F 62.3 °F 29.95 in NNW 5.1 mph 9.2 mph 71 % 0.00 in
21:07 72.1 °F 61.8 °F 29.95 in NNE 5.0 mph 9.2 mph 70 % 0.00 in
21:12 72.1 °F 62.2 °F 29.95 in NNE 4.8 mph 8.1 mph 71 % 0.00 in
21:17 72.1 °F 61.8 °F 29.95 in North 2.6 mph 9.2 mph 70 % 0.00 in
21:22 72.0 °F 62.1 °F 29.95 in NNE 3.3 mph 8.1 mph 71 % 0.00 in
21:27 71.9 °F 62.0 °F 29.95 in North 4.2 mph 8.1 mph 71 % 0.00 in
21:32 71.9 °F 62.4 °F 29.95 in NNE 4.7 mph 6.9 mph 72 % 0.00 in
21:37 71.8 °F 62.3 °F 29.95 in NNE 5.2 mph 8.1 mph 72 % 0.00 in
21:42 71.7 °F 61.8 °F 29.95 in North 3.3 mph 6.9 mph 71 % 0.00 in
21:47 71.7 °F 62.2 °F 29.95 in NNE 4.0 mph 4.6 mph 72 % 0.00 in
21:52 71.6 °F 62.5 °F 29.95 in North 3.3 mph 5.8 mph 73 % 0.00 in
21:57 71.5 °F 62.4 °F 29.95 in NNE 6.1 mph 9.0 mph 73 % 0.00 in
22:02 71.4 °F 62.3 °F 29.95 in NE 4.5 mph 5.8 mph 73 % 0.00 in
22:07 71.3 °F 61.4 °F 29.95 in NNE 3.6 mph 9.2 mph 71 % 0.00 in
22:13 71.2 °F 61.7 °F 29.95 in NNE 4.4 mph 8.1 mph 72 % 0.00 in
22:18 71.2 °F 61.7 °F 29.95 in NNE 5.6 mph 9.0 mph 72 % 0.00 in
22:23 71.1 °F 61.6 °F 29.95 in NNE 3.5 mph 8.0 mph 72 % 0.00 in
22:28 71.0 °F 61.1 °F 29.95 in North 4.3 mph 9.2 mph 71 % 0.00 in
22:33 71.0 °F 61.1 °F 29.95 in NE 4.5 mph 8.1 mph 71 % 0.00 in
22:38 71.0 °F 61.5 °F 29.95 in North 2.5 mph 6.9 mph 72 % 0.00 in
22:43 70.9 °F 62.2 °F 29.95 in NE 2.5 mph 6.9 mph 74 % 0.00 in
22:48 70.9 °F 61.8 °F 29.95 in North 2.7 mph 6.9 mph 73 % 0.00 in
22:53 70.8 °F 62.1 °F 29.95 in NNE 2.8 mph 4.6 mph 74 % 0.00 in
22:58 70.7 °F 61.2 °F 29.95 in NE 2.9 mph 8.1 mph 72 % 0.00 in
23:03 70.6 °F 61.1 °F 29.95 in North 2.5 mph 6.9 mph 72 % 0.00 in
23:08 70.5 °F 60.6 °F 29.95 in ENE 2.1 mph 4.6 mph 71 % 0.00 in
23:13 70.3 °F 59.2 °F 29.95 in NE 4.1 mph 6.9 mph 68 % 0.00 in
23:17 70.3 °F 59.2 °F 29.95 in NNE 2.7 mph 4.6 mph 68 % 0.00 in
23:22 70.2 °F 59.6 °F 29.95 in NE 2.7 mph 4.6 mph 69 % 0.00 in
23:27 70.2 °F 58.7 °F 29.95 in North 5.3 mph 10.4 mph 67 % 0.00 in
23:32 70.1 °F 58.2 °F 29.94 in NE 4.5 mph 8.1 mph 66 % 0.00 in
23:37 70.1 °F 57.8 °F 29.94 in North 4.8 mph 10.4 mph 65 % 0.00 in
23:40 70.1 °F 58.2 °F 29.95 in NNE 7.1 mph 12.7 mph 66 % 0.00 in
23:45 70.1 °F 57.8 °F 29.95 in NE 7.6 mph 11.5 mph 65 % 0.00 in
23:49 70.1 °F 58.2 °F 29.95 in NNE 7.3 mph 11.0 mph 66 % 0.00 in
23:54 70.1 °F 57.4 °F 29.95 in North 5.7 mph 9.2 mph 64 % 0.00 in
23:59 70.1 °F 58.2 °F 29.94 in NE 3.9 mph 7.0 mph 66 % 0.00 in
Crab Meadow Weather
Compliments of Weather Underground - 3 mb

Script developed by  Jim McMurry - jmcmurry@mwt.net Adapted for the template by  Wim van der Kuil - Leuven-Template.eu

Astronomy: Mercury can get as hot as 800 degrees and can be as cold as 300 degrees below zero.